Regional Weather Roundup
Issued by NWS Newport/Morehead, NC

Current Version | Previous Version | Graphics & Text | Print | Product List | Glossary Off
Versions: 1 2 3 4 5 6 7 8 9 10 11 12 13 14 15 16 17 18 19 20 21 22 23 24 25 26 27 28 29 30 31 32 33 34 35 36 37 38 39 40 41 42 43 44 45 46 47 48 49 50

000
ASUS42 KMHX 241113
RWRMHX
WEATHER ROUNDUP FOR EASTERN NORTH CAROLINA
NATIONAL WEATHER SERVICE NEWPORT/MOREHEAD CITY NC
700 AM EDT SAT JUN 24 2017

NOTE: "FAIR" INDICATES FEW OR NO CLOUDS BELOW 12,000 FEET
WITH NO SIGNIFICANT WEATHER AND/OR OBSTRUCTIONS TO VISIBILITY

NCZ015>017-031-032-045>047-102-103-241200-
NORTH COAST

CITY           SKY/WX    TMP DP  RH WIND       PRES   REMARKS
EDENTON        PTSUNNY   80  73  79 SW17G26   29.85R
ELIZABETH CITY PTSUNNY   80  74  81 SW23G37   29.82R
KITTY HAWK     SUNNY     80  72  78 SW15G25   29.83R
MANTEO         MOSUNNY   79  74  84 SW23      29.85S

$$

NCZ045>047-081-094-103-104-241200-
CENTRAL COAST

CITY           SKY/WX    TMP DP  RH WIND       PRES   REMARKS
FRISCO         MOSUNNY   79  75  87 SW17G29   29.91R FOG

$$

NCZ095-097-098-100-101-241200-
SOUTHERN COAST

CITY           SKY/WX    TMP DP  RH WIND       PRES   REMARKS
BEAUFORT       MOSUNNY   81  77  88 SW25G36   29.93R
CEDAR ISLAND   NOT AVBL
JACKSONVILLE   MOSUNNY   80  76  87 SW12      29.92R
PINEY ISLAND   MOSUNNY  N/A N/A N/A SW18G32   29.91R
WILMINGTON     PTSUNNY   80  75  84 SW17      29.95R


$$

NCZ011>013-027>030-043-044-078>080-089-090>093-098-241200-
COASTAL PLAIN

CITY           SKY/WX    TMP DP  RH WIND       PRES   REMARKS
AHOSKIE          N/A     76  72  86 S6        29.83R
CLINTON        MOSUNNY   78  75  90 SW9G17    29.92R
ELIZABETHTOWN  NOT AVBL
GOLDSBORO      NOT AVBL
GREENVILLE     MOSUNNY   79  72  78 SW14G23   29.89S
HAVELOCK       MOSUNNY   80  74  81 SW17G25   29.92R
KENANSVILLE    PTSUNNY   77  73  88 SW7       29.91S
KINSTON        PTSUNNY   79  72  78 SW12G18   29.91R
NEW BERN       CLOUDY    79  74  84 SW10      29.92R
RICHLANDS      CLOUDY    79  74  84 SW13      29.93R
ROCKY MOUNT    CLOUDY    78  74  87 SW13      29.87R
WASHINGTON     PTSUNNY  N/A N/A N/A SW14G21   29.88S
WHITEVILLE     CLEAR     78  73  85 SW8       29.95R

$$

AMZ130-135-150-152-154-156-158-170-250-252-270-ANZ085-086-088-633-658-670-241200-
MARINE OBSERVATIONS

STATION/POSITION TIME  TEMP    WIND        PRES    WAVE   SWELL
                       AIR SEA DIR/SP/G            HT/PER HT/PER
                 (UTC) (F)     (DEG/KT/KT) (MB)    (FT/S) (FT/S)
CHESAPEAKE LIGHT NOT AVBL
64 E VA BEACH    1050   74 70  210/ 21/ 25 1009.2    7/ 7   2/10
DUCK             1048   80 61  220/ 26/ 31 1009.5
2 E DUCK         NOT AVBL
OREGON INLET     1048          210/ 27/ 31   N/A
13E OREGON INLT  1048      67                N/A     5/ 5   2/ 8
HATTERAS CG      1048   79 78  230/ 16/ 23 1012.5
DIAMOND BUOY     1050   81 80  230/ 25/ 31 1012.6    8/ 7   2/10
CAPE LOOKOUT     1100   80     220/ 17/ 23 1013.3
BEAUFORT LAB     1048   80 77  220/ 11/ 21 1012.8
30 SE NEW RVR IN 1008   80 80  240/ 21/ 29 1014.0
30 SE NEW RVR IN 1043      80                N/A     8/ 7   2/11
27 SE WRIGHTSVLE 1008   79 79  220/ 19/ 25 1013.9
5 SE WRIGHTSVLE  1008   80 78  210/ 17/ 27 1013.9
225 S CAPE HAT   1050   81 80  200/ 14/ 17 1017.8    4/ 9   2/ 9
41 SE CHARLESTON 1050   81 80  220/ 19/ 23 1015.5    6/ 6   2/ 9

$$



USA.gov is the U.S. government's official web portal to all federal, state and local government web resources and services.